Montgomery Regional (Dannelly Field) Airport
KMGM : now visible

Airfield :











YOU CAN JOIN US ON...

 
LOGIN :

Register | Disclaimer

   EN    FR    IT 

 









Legend :    VFR   Marginal VFR   IFR   Intensive IFR   Very Intensive IFR
Visi :
Ceiling :
>= 8 km
>= 3000ft
5 to 8 km
1000 to 3000 ft
1500m to 5 km
500 to 1000 ft
800 to 1500m
200 to 500 ft
< 800m
< 200 ft
Symbols :   Thunderstorms  Fog  Heavy snow  Heavy precipitations  Wind > 20 kt






- Airport Elevation : 221 ft
- IATA code : MGM


KMGM - Montgomery Regional (Dannelly Field)

CURRENT METAR :
  • 231653Z VRB05KT 10SM SCT046 28/18 A3010 RMK AO2 SLP190 T02830183

EXPIRED METARs :
  • 231553Z 07004KT 10SM OVC040 27/18 A3011 RMK AO2 SLP194 T02670178
  • 231453Z 07007KT 10SM OVC037 26/17 A3010 RMK AO2 SLP190 T02560167 51008

TAF KMGM
Valid from the 23 at 12:00 until the 24 at 12:00 UTC


231120Z 2312/2412 00000KT P6SM SCT025 BKN035
FM231400 00000KT P6SM SCT035 BKN070
FM231700 10006KT P6SM SCT100
FM240000 04003KT P6SM BKN100
KZTL FIR / North America



MET'MAP, your aeronautical weather chart ! - Copyright ORBIFLY December 2007 - Disclaimer

ORBIFLY MET'MAP TEAM :

Programming & Development : Alexandra Zaïnal
Concept & original design : Baudouin d'Aumeries
Assistance for programming : Marc-Olivier Méhu
Technical & hardware support : Manuel Goepfert

Contact : metmap@orbifly.com




SOURCES & CREDITS :

   NOAA       Earth
Advisory